This is the latest recevied weather packets stored in our database for station/object KO6LQJ. If no packets are shown the sender has not sent any weather packets the latest 10 day(s).
| Time | Temp. | Humidity | Pressure | Rain* | Wind** | Luminosity | Snow |
|---|---|---|---|---|---|---|---|
| 1778010252 | 20° C | 47% | 1016.4 hPa | 0 mm | - | 336 W/m² | - |
| 1778009951 | 19.44° C | 50% | 1016.5 hPa | 0 mm | - | 420 W/m² | - |
| 1778009650 | 19.44° C | 50% | 1016.3 hPa | 0 mm | - | 237 W/m² | - |
| 1778009347 | 18.89° C | 48% | 1016.4 hPa | 0 mm | - | 225 W/m² | - |
| 1778009045 | 19.44° C | 47% | 1016.6 hPa | 0 mm | - | 230 W/m² | - |
| 1778008743 | 19.44° C | 46% | 1016.4 hPa | 0 mm | - | 239 W/m² | - |
| 1778008441 | 20° C | 45% | 1016.5 hPa | 0 mm | - | 265 W/m² | - |
| 1778008137 | 20° C | 45% | 1016.8 hPa | 0 mm | - | 269 W/m² | - |
| 1778007833 | 20° C | 46% | 1016.5 hPa | 0 mm | - | 275 W/m² | - |
| 1778007528 | 19.44° C | 45% | 1016.6 hPa | 0 mm | - | 299 W/m² | - |
| 1778007225 | 20° C | 46% | 1016.5 hPa | 0 mm | - | 567 W/m² | - |
| 1778006921 | 18.89° C | 45% | 1016.8 hPa | 0 mm | - | 1019 W/m² | - |
| 1778006619 | 18.33° C | 49% | 1016.6 hPa | 0 mm | - | 432 W/m² | - |
| 1778006315 | 18.89° C | 48% | 1016.7 hPa | 0 mm | - | 304 W/m² | - |
| 1778006012 | 18.89° C | 49% | 1016.4 hPa | 0 mm | - | 302 W/m² | - |
| 1778005709 | 17.78° C | 49% | 1016.8 hPa | 0 mm | - | 230 W/m² | - |
| 1778005406 | 17.78° C | 50% | 1016.6 hPa | 0 mm | - | 336 W/m² | - |
| 1778005103 | 17.22° C | 50% | 1016.6 hPa | 0 mm | - | 180 W/m² | - |
| 1778004800 | 17.22° C | 50% | 1016.7 hPa | 0 mm | - | 160 W/m² | - |
| 1778004496 | 17.78° C | 50% | 1016.7 hPa | 0 mm | - | 177 W/m² | - |
| 1778004193 | 17.78° C | 49% | 1016.6 hPa | 0 mm | - | 209 W/m² | - |
| 1778003889 | 17.78° C | 48% | 1016.5 hPa | 0 mm | - | 222 W/m² | - |
| 1778003586 | 17.78° C | 49% | 1016.7 hPa | 0 mm | - | 212 W/m² | - |
| 1778003282 | 17.22° C | 51% | 1016.7 hPa | 0 mm | - | 272 W/m² | - |
| 1778002980 | 17.22° C | 50% | 1016.5 hPa | 0 mm | - | 214 W/m² | - |
* Rain latest hour (hover to see other rain measurements)
** Current wind speed in m/s (hover to see current wind gust speed)